When you browse on this site, cookies collect data to enhance your experience and personalize the content and advertising you see.
Visit our Privacy Policy to learn more. By continuing to use the site, you agree to this use of cookies and data.
  • In Deutschland
  • Länderverzeichnis
  • Für 7 Tage
  • Wassertemperatur
  • Wetterkarte
  • Widgets
  • user-avatar
    Anmelden

    Stündliche Wetter Lezhe

    Heute, 16 September, Montag

    Zeit Temperatur Niederschläge Wind Luftdruck Luftfeuchtigkeit
    00:00 +21°C° 0 mm 1 m/S 741 mmHg 51%
    01:00 +21°C° 0 mm 1 m/S 741 mmHg 52%
    02:00 +20°C° 0 mm 1 m/S 741 mmHg 53%
    03:00 +20°C° 0 mm 1 m/S 741 mmHg 54%
    04:00 +19°C° 0 mm 2 m/S 740 mmHg 55%
    05:00 +21°C° 0 mm 1 m/S 740 mmHg 53%
    06:00 +22°C° 0 mm 1 m/S 740 mmHg 50%
    07:00 +23°C° 0 mm 1 m/S 740 mmHg 48%
    08:00 +25°C° 0 mm 1 m/S 740 mmHg 43%
    09:00 +28°C° 0 mm 1 m/S 740 mmHg 38%
    10:00 +30°C° 0 mm 1 m/S 740 mmHg 32%
    11:00 +30°C° 0 mm 2 m/S 740 mmHg 32%
    12:00 +31°C° 0 mm 3 m/S 739 mmHg 31%
    13:00 +31°C° 0 mm 3 m/S 739 mmHg 30%
    14:00 +30°C° 0 mm 3 m/S 739 mmHg 34%
    15:00 +29°C° 0 mm 3 m/S 738 mmHg 38%
    16:00 +28°C° 0 mm 3 m/S 738 mmHg 41%
    17:00 +26°C° 0 mm 2 m/S 738 mmHg 50%
    18:00 +24°C° 0 mm 1 m/S 738 mmHg 60%
    19:00 +21°C° 0 mm 1 m/S 738 mmHg 69%
    20:00 +21°C° 0 mm 1 m/S 738 mmHg 68%
    21:00 +21°C° 0 mm 1 m/S 738 mmHg 67%
    22:00 +20°C° 0 mm 1 m/S 738 mmHg 66%
    23:00 +20°C° 0 mm 1 m/S 738 mmHg 65%

    Morgen, 17 September, Dienstag

    Zeit Temperatur Niederschläge Wind Luftdruck Luftfeuchtigkeit
    00:00 +20°C° 0 mm 1 m/S 738 mmHg 64%
    01:00 +20°C° 0 mm 1 m/S 738 mmHg 63%
    02:00 +19°C° 0 mm 1 m/S 738 mmHg 63%
    03:00 +19°C° 0 mm 1 m/S 738 mmHg 63%
    04:00 +19°C° 0 mm 1 m/S 738 mmHg 63%
    05:00 +20°C° 0 mm 1 m/S 738 mmHg 59%
    06:00 +21°C° 0 mm 1 m/S 738 mmHg 55%
    07:00 +21°C° 0 mm 0 m/S 738 mmHg 51%
    08:00 +25°C° 0 mm 1 m/S 738 mmHg 46%
    09:00 +27°C° 0 mm 1 m/S 738 mmHg 42%
    10:00 +29°C° 0 mm 2 m/S 738 mmHg 37%
    11:00 +29°C° 0 mm 2 m/S 737 mmHg 37%
    12:00 +30°C° 0 mm 3 m/S 737 mmHg 38%
    13:00 +30°C° 0 mm 3 m/S 737 mmHg 38%
    14:00 +29°C° 0 mm 3 m/S 736 mmHg 41%
    15:00 +28°C° 0 mm 3 m/S 736 mmHg 44%
    16:00 +28°C° 0 mm 3 m/S 736 mmHg 47%
    17:00 +25°C° 0 mm 2 m/S 736 mmHg 57%
    18:00 +23°C° 0 mm 1 m/S 736 mmHg 67%
    19:00 +19°C° 0 mm 0 m/S 736 mmHg 78%
    20:00 +20°C° 0 mm 1 m/S 736 mmHg 76%
    21:00 +20°C° 0 mm 1 m/S 736 mmHg 74%
    22:00 +20°C° 0 mm 1 m/S 736 mmHg 73%
    23:00 +20°C° 0 mm 1 m/S 736 mmHg 71%

    übermorgen, 18 September, Mittwoch

    Zeit Temperatur Niederschläge Wind Luftdruck Luftfeuchtigkeit
    00:00 +19°C° 0 mm 1 m/S 736 mmHg 70%
    01:00 +19°C° 0 mm 1 m/S 736 mmHg 69%
    02:00 +19°C° 0 mm 1 m/S 736 mmHg 69%
    03:00 +19°C° 0 mm 1 m/S 736 mmHg 69%
    04:00 +18°C° 0 mm 1 m/S 736 mmHg 69%
    05:00 +20°C° 0 mm 1 m/S 736 mmHg 63%
    06:00 +21°C° 0 mm 1 m/S 737 mmHg 58%
    07:00 +22°C° 0 mm 1 m/S 737 mmHg 53%
    08:00 +25°C° 0 mm 1 m/S 737 mmHg 47%
    09:00 +27°C° 0 mm 1 m/S 737 mmHg 41%
    10:00 +29°C° 0 mm 1 m/S 738 mmHg 35%
    11:00 +29°C° 0 mm 2 m/S 738 mmHg 35%
    12:00 +30°C° 0 mm 2 m/S 738 mmHg 34%
    13:00 +30°C° 0 mm 3 m/S 738 mmHg 33%
    14:00 +29°C° 0 mm 3 m/S 737 mmHg 36%
    15:00 +29°C° 0 mm 3 m/S 737 mmHg 38%
    16:00 +28°C° 0 mm 3 m/S 737 mmHg 41%
    17:00 +26°C° 0 mm 3 m/S 737 mmHg 45%
    18:00 +22°C° 0 mm 3 m/S 738 mmHg 50%
    19:00 +20°C° 0 mm 3 m/S 738 mmHg 54%
    20:00 +19°C° 0 mm 3 m/S 738 mmHg 54%
    21:00 +19°C° 0 mm 3 m/S 738 mmHg 53%
    22:00 +18°C° 0 mm 3 m/S 739 mmHg 53%
    23:00 +18°C° 0 mm 3 m/S 739 mmHg 53%

    19 September, Donnerstag

    Zeit Temperatur Niederschläge Wind Luftdruck Luftfeuchtigkeit
    00:00 +17°C° 0 mm 3 m/S 738 mmHg 53%
    01:00 +17°C° 0 mm 3 m/S 738 mmHg 53%
    02:00 +17°C° 0 mm 3 m/S 738 mmHg 53%
    03:00 +17°C° 0 mm 3 m/S 738 mmHg 54%
    04:00 +17°C° 0 mm 3 m/S 738 mmHg 54%
    05:00 +17°C° 0 mm 3 m/S 738 mmHg 53%
    06:00 +18°C° 0 mm 4 m/S 738 mmHg 53%
    07:00 +18°C° 0 mm 4 m/S 738 mmHg 53%
    08:00 +20°C° 0.1 mm 3 m/S 738 mmHg 48%
    09:00 +22°C° 0.1 mm 3 m/S 739 mmHg 44%
    10:00 +25°C° 0.1 mm 3 m/S 739 mmHg 40%
    11:00 +24°C° 0.1 mm 3 m/S 739 mmHg 41%
    12:00 +24°C° 0.1 mm 3 m/S 738 mmHg 41%
    13:00 +22°C° 0.1 mm 3 m/S 738 mmHg 42%
    14:00 +24°C° 0.1 mm 3 m/S 738 mmHg 42%
    15:00 +24°C° 0.1 mm 3 m/S 738 mmHg 42%
    16:00 +24°C° 0.1 mm 3 m/S 738 mmHg 42%
    17:00 +21°C° 0 mm 3 m/S 739 mmHg 47%
    18:00 +19°C° 0 mm 3 m/S 739 mmHg 52%
    19:00 +18°C° 0 mm 4 m/S 739 mmHg 57%
    20:00 +17°C° 0 mm 4 m/S 739 mmHg 56%
    21:00 +17°C° 0 mm 4 m/S 740 mmHg 54%
    22:00 +17°C° 0 mm 4 m/S 740 mmHg 53%
    23:00 +15°C° 0 mm 4 m/S 740 mmHg 53%

    20 September, Freitag

    Zeit Temperatur Niederschläge Wind Luftdruck Luftfeuchtigkeit
    00:00 +15°C° 0 mm 4 m/S 740 mmHg 52%
    01:00 +15°C° 0 mm 4 m/S 740 mmHg 52%
    02:00 +14°C° 0 mm 4 m/S 740 mmHg 52%
    03:00 +14°C° 0 mm 4 m/S 740 mmHg 52%
    04:00 +13°C° 0 mm 4 m/S 740 mmHg 52%
    05:00 +14°C° 0 mm 5 m/S 740 mmHg 49%
    06:00 +15°C° 0 mm 5 m/S 740 mmHg 47%
    07:00 +15°C° 0 mm 5 m/S 740 mmHg 44%
    08:00 +17°C° 0 mm 5 m/S 741 mmHg 40%
    09:00 +20°C° 0 mm 5 m/S 741 mmHg 36%
    10:00 +21°C° 0 mm 5 m/S 741 mmHg 32%
    11:00 +22°C° 0 mm 5 m/S 741 mmHg 30%
    12:00 +23°C° 0 mm 5 m/S 741 mmHg 28%
    13:00 +25°C° 0 mm 5 m/S 740 mmHg 25%
    14:00 +25°C° 0 mm 5 m/S 740 mmHg 25%
    15:00 +25°C° 0 mm 5 m/S 740 mmHg 24%
    16:00 +23°C° 0 mm 5 m/S 740 mmHg 23%
    17:00 +21°C° 0 mm 5 m/S 741 mmHg 26%
    18:00 +19°C° 0 mm 5 m/S 741 mmHg 28%
    19:00 +16°C° 0 mm 5 m/S 742 mmHg 30%
    20:00 +15°C° 0 mm 5 m/S 742 mmHg 32%
    21:00 +14°C° 0 mm 5 m/S 743 mmHg 34%
    22:00 +14°C° 0 mm 6 m/S 743 mmHg 35%
    23:00 +13°C° 0 mm 5 m/S 743 mmHg 37%

    21 September, Samstag

    Zeit Temperatur Niederschläge Wind Luftdruck Luftfeuchtigkeit
    00:00 +12°C° 0 mm 5 m/S 743 mmHg 38%
    01:00 +12°C° 0 mm 5 m/S 744 mmHg 40%
    02:00 +10°C° 0 mm 5 m/S 744 mmHg 41%
    03:00 +10°C° 0 mm 5 m/S 744 mmHg 42%
    04:00 +9°C° 0 mm 5 m/S 744 mmHg 42%
    05:00 +10°C° 0 mm 5 m/S 744 mmHg 40%
    06:00 +12°C° 0 mm 5 m/S 744 mmHg 38%
    07:00 +13°C° 0 mm 5 m/S 744 mmHg 36%
    08:00 +15°C° 0 mm 4 m/S 744 mmHg 32%
    09:00 +19°C° 0 mm 4 m/S 744 mmHg 27%
    10:00 +21°C° 0 mm 4 m/S 744 mmHg 22%
    11:00 +22°C° 0 mm 3 m/S 744 mmHg 21%
    12:00 +25°C° 0 mm 3 m/S 744 mmHg 20%
    13:00 +26°C° 0 mm 3 m/S 744 mmHg 18%
    14:00 +26°C° 0 mm 3 m/S 743 mmHg 19%
    15:00 +26°C° 0 mm 3 m/S 743 mmHg 19%
    16:00 +25°C° 0 mm 3 m/S 743 mmHg 20%
    17:00 +22°C° 0 mm 3 m/S 743 mmHg 23%
    18:00 +19°C° 0 mm 3 m/S 744 mmHg 26%
    19:00 +17°C° 0 mm 2 m/S 744 mmHg 29%
    20:00 +16°C° 0 mm 2 m/S 744 mmHg 28%
    21:00 +16°C° 0 mm 2 m/S 744 mmHg 28%
    22:00 +15°C° 0 mm 2 m/S 745 mmHg 27%
    23:00 +15°C° 0 mm 2 m/S 745 mmHg 28%
    Mehr zeigen